Watertown, NY

6:49 PM EST on November 19, 2019 (GMT -0500)
Watertown International

Weather History for KART - September, 2019

Change the Weather History Date:

Monday, September 9, 2019

  Actual Average Record
Temperature  
Mean Temperature 56 °F 62 °F  
Max Temperature 67 °F 73 °F 91 °F (1959)
Min Temperature 44 °F 51 °F 33 °F (1979)
Degree Days  
Heating Degree Days 9 5  
Month to date heating degree days 42 33  
Since 1 July heating degree days 71 105  
Cooling Degree Days 0 2  
Month to date cooling degree days 4 18  
Year to date cooling degree days 325 342  
Growing Degree Days 6 (Base 50)    
Moisture  
Dew Point 46 °F    
Average Humidity 68    
Maximum Humidity 93    
Minimum Humidity 42    
Precipitation  
Precipitation 0.00 in 0.11 in 2.51 in (2004)
Month to date precipitation 1.92 0.97  
Year to date precipitation 30.01 22.77  
Sea Level Pressure  
Sea Level Pressure 30.30 in    
Wind  
Wind Speed 5 mph (NE)    
Max Wind Speed 13 mph    
Max Gust Speed 15 mph    
Visibility 10 miles    
Events      
T = Trace of Precipitation, MM = Missing Value Source: NWS Daily Summary

Daily Weather History Graph

Daily Weather History Graph

Search for Another Location

Airport or City:

Astronomy

Sep. 09, 2019 Rise Set
Actual Time 6:36 AM EDT 7:25 PM EDT
Civil Twilight 6:06 AM EDT 7:55 PM EDT
Nautical Twilight 5:32 AM EDT 8:29 PM EDT
Astronomical Twilight 4:55 AM EDT 9:06 PM EDT
Moon 5:29 PM EDT (9/9) 1:55 AM EDT (9/9)
Length of Visible Light 13h 48m
Length of Day
12h 49m
Waxing Gibbous, 83% of the Moon is Illuminated
Sep 9
Waxing Gibbous
Sep 14
Full
Sep 21
Last Quarter
Sep 28
New
Oct 5
First Quarter

Hourly Weather History & Observations

Time (EDT) Temp. Windchill Dew Point Humidity Pressure Visibility Wind Dir Wind Speed Gust Speed Precip Events Conditions
12:56 AM 51.1 °F - 46.0 °F 83% 30.25 in 10.0 mi NE 5.8 mph - N/A   Overcast
1:56 AM 51.1 °F - 46.9 °F 86% 30.25 in 10.0 mi NE 6.9 mph - N/A   Mostly Cloudy
2:56 AM 46.9 °F - 44.1 °F 90% 30.25 in 10.0 mi ENE 4.6 mph - N/A   Clear
3:56 AM 48.0 °F - 45.0 °F 89% 30.25 in 10.0 mi NE 5.8 mph - N/A   Overcast
4:56 AM 48.0 °F - 45.0 °F 89% 30.26 in 10.0 mi ENE 5.8 mph - N/A   Mostly Cloudy
5:56 AM 46.9 °F - 44.1 °F 90% 30.28 in 10.0 mi NNE 6.9 mph - N/A   Scattered Clouds
6:56 AM 45.0 °F 41.8 °F 43.0 °F 93% 30.31 in 10.0 mi ENE 5.8 mph - N/A   Overcast
7:56 AM 48.0 °F - 46.0 °F 93% 30.31 in 10.0 mi ENE 6.9 mph - N/A   Scattered Clouds
8:56 AM 52.0 °F - 46.9 °F 83% 30.34 in 10.0 mi ENE 8.1 mph - N/A   Clear
9:56 AM 57.0 °F - 48.9 °F 74% 30.34 in 10.0 mi NE 8.1 mph - N/A   Clear
10:56 AM 59.0 °F - 48.0 °F 67% 30.33 in 10.0 mi Variable 6.9 mph - N/A   Clear
11:56 AM 62.1 °F - 48.0 °F 60% 30.32 in 10.0 mi NNE 5.8 mph - N/A   Partly Cloudy
12:56 PM 63.0 °F - 45.0 °F 52% 30.31 in 10.0 mi Calm Calm - N/A   Clear
1:56 PM 64.0 °F - 44.1 °F 48% 30.31 in 10.0 mi Variable 3.5 mph - N/A   Clear
2:56 PM 66.0 °F - 42.1 °F 42% 30.29 in 10.0 mi Calm Calm - N/A   Clear
3:56 PM 66.9 °F - 45.0 °F 45% 30.28 in 10.0 mi West 5.8 mph - N/A   Clear
4:56 PM 66.0 °F - 46.0 °F 48% 30.28 in 10.0 mi Variable 5.8 mph - N/A   Clear
5:56 PM 66.0 °F - 46.0 °F 48% 30.29 in 10.0 mi NW 3.5 mph - N/A   Clear
6:56 PM 62.1 °F - 45.0 °F 53% 30.29 in 10.0 mi NNE 6.9 mph - N/A   Clear
7:56 PM 51.1 °F - 46.9 °F 86% 30.31 in 10.0 mi Calm Calm - N/A   Clear
8:56 PM 48.9 °F - 46.0 °F 90% 30.32 in 10.0 mi East 3.5 mph - N/A   Clear
9:56 PM 48.0 °F - 45.0 °F 89% 30.33 in 10.0 mi Calm Calm - N/A   Clear
10:56 PM 46.9 °F - 45.0 °F 93% 30.32 in 10.0 mi East 4.6 mph - N/A   Clear
11:56 PM 46.0 °F 44.8 °F 44.1 °F 93% 30.32 in 10.0 mi East 3.5 mph - N/A   Clear